ENY3614 KORD-KGRB

Flight info

Callsign ENY3614
Flight time 0h 34m
Altitude 19000
Route RAYNR BRTMN TAAYZ/N0357F180 BAE/N0350F170 V217 CHING
Aircraft CRJ7/M-SDFGIRWY/S

Departure

Time 2026-04-14 13:53
Airport Chicago O'Hare International Airport (KORD)

Arrival

Time 2026-04-14 14:28
Airport Austin Straubel International Airport (KGRB)
Time Latitude Longitude Altitude Speed Heading
2026-04-14 13:37 41.97614 -87.89615 667 ft 0 kts
2026-04-14 13:43 41.97608 -87.89616 667 ft 2 kts
2026-04-14 13:43 41.97592 -87.89621 667 ft 2 kts 15°
2026-04-14 13:44 41.97577 -87.89629 667 ft 2 kts 39°
2026-04-14 13:44 41.97571 -87.89649 667 ft 2 kts 97°
2026-04-14 13:44 41.97572 -87.89658 667 ft 0 kts 106°
2026-04-14 13:47 41.97572 -87.89655 667 ft 1 kts 106°
2026-04-14 13:47 41.97569 -87.89642 667 ft 2 kts 106°
2026-04-14 13:48 41.97558 -87.89601 667 ft 8 kts 112°
2026-04-14 13:48 41.97522 -87.89536 667 ft 9 kts 140°
2026-04-14 13:48 41.97483 -87.89473 667 ft 9 kts 124°
2026-04-14 13:48 41.97431 -87.89432 667 ft 9 kts 178°
2026-04-14 13:49 41.97368 -87.89430 667 ft 9 kts 179°
2026-04-14 13:49 41.97355 -87.89430 667 ft 0 kts 179°
2026-04-14 13:49 41.97354 -87.89430 667 ft 0 kts 179°
2026-04-14 13:49 41.97348 -87.89429 667 ft 1 kts 179°
2026-04-14 13:50 41.97315 -87.89429 667 ft 10 kts 181°
2026-04-14 13:50 41.97203 -87.89400 667 ft 19 kts 124°
2026-04-14 13:50 41.97195 -87.89164 667 ft 34 kts 90°
2026-04-14 13:50 41.97195 -87.88837 667 ft 34 kts 88°
2026-04-14 13:51 41.97196 -87.88532 667 ft 16 kts 90°
2026-04-14 13:51 41.97188 -87.88386 667 ft 15 kts 107°
2026-04-14 13:51 41.97148 -87.88254 667 ft 15 kts 113°
2026-04-14 13:51 41.97095 -87.88130 667 ft 15 kts 131°
2026-04-14 13:52 41.97016 -87.88046 669 ft 13 kts 147°
2026-04-14 13:52 41.96951 -87.88027 670 ft 0 kts 212°
2026-04-14 13:52 41.96945 -87.88033 670 ft 4 kts 218°
2026-04-14 13:52 41.96818 -87.88182 668 ft 61 kts 220°
2026-04-14 13:53 41.96298 -87.88781 670 ft 132 kts 222°
2026-04-14 13:53 41.95535 -87.89753 981 ft 163 kts 217°
2026-04-14 13:53 41.94691 -87.90824 1795 ft 175 kts 225°
2026-04-14 13:53 41.94096 -87.92264 2756 ft 184 kts 258°
2026-04-14 13:54 41.94210 -87.93995 3808 ft 196 kts 286°
2026-04-14 13:54 41.94901 -87.95643 4847 ft 210 kts 311°
2026-04-14 13:54 41.96319 -87.96478 5672 ft 243 kts 352°
2026-04-14 13:54 41.98046 -87.96118 6587 ft 258 kts
2026-04-14 13:55 41.99836 -87.95438 7118 ft 277 kts 13°
2026-04-14 13:55 42.01696 -87.94522 7711 ft 291 kts 15°
2026-04-14 13:55 42.03580 -87.93461 8488 ft 296 kts 17°
2026-04-14 13:55 42.05386 -87.92018 9238 ft 311 kts 34°
2026-04-14 13:56 42.07043 -87.90110 10022 ft 316 kts 33°
2026-04-14 13:56 42.08808 -87.88338 10682 ft 322 kts 26°
2026-04-14 13:56 42.10807 -87.86844 11055 ft 335 kts 18°
2026-04-14 13:56 42.13017 -87.85724 11537 ft 343 kts
2026-04-14 13:57 42.15341 -87.84999 12285 ft 343 kts
2026-04-14 13:57 42.17719 -87.84562 12877 ft 349 kts 359°
2026-04-14 13:57 42.20143 -87.84246 13636 ft 352 kts 359°
2026-04-14 13:57 42.22593 -87.83930 14333 ft 355 kts 359°
2026-04-14 13:58 42.25068 -87.83599 14971 ft 360 kts 360°
2026-04-14 13:58 42.27573 -87.83220 15602 ft 364 kts
2026-04-14 13:58 42.30096 -87.82826 16199 ft 368 kts
2026-04-14 13:58 42.32654 -87.82412 16802 ft 371 kts
2026-04-14 13:59 42.35228 -87.82035 17387 ft 374 kts 359°
2026-04-14 13:59 42.37833 -87.81701 17970 ft 377 kts 359°
2026-04-14 13:59 42.40461 -87.81367 18498 ft 382 kts 358°
2026-04-14 13:59 42.43104 -87.81034 18730 ft 393 kts 358°
2026-04-14 14:00 42.45879 -87.80690 18825 ft 408 kts 358°
2026-04-14 14:00 42.48754 -87.80453 18877 ft 416 kts 353°
2026-04-14 14:00 42.51639 -87.80620 18899 ft 415 kts 349°
2026-04-14 14:00 42.54520 -87.80920 18889 ft 417 kts 349°
2026-04-14 14:01 42.57422 -87.81212 18894 ft 420 kts 349°
2026-04-14 14:01 42.60348 -87.81425 18922 ft 422 kts 351°
2026-04-14 14:01 42.63271 -87.81603 18917 ft 420 kts 351°
2026-04-14 14:01 42.66191 -87.81794 18910 ft 419 kts 351°
2026-04-14 14:02 42.69102 -87.81990 18908 ft 418 kts 350°
2026-04-14 14:02 42.71907 -87.82666 18902 ft 402 kts 332°
2026-04-14 14:02 42.74347 -87.84386 18908 ft 392 kts 322°
2026-04-14 14:02 42.76553 -87.86524 18911 ft 387 kts 315°
2026-04-14 14:03 42.78564 -87.88925 18910 ft 384 kts 312°
2026-04-14 14:03 42.80531 -87.91387 18911 ft 384 kts 312°
2026-04-14 14:03 42.82499 -87.93844 18905 ft 384 kts 313°
2026-04-14 14:03 42.84503 -87.96251 18898 ft 384 kts 314°
2026-04-14 14:04 42.86526 -87.98629 18890 ft 384 kts 314°
2026-04-14 14:04 42.88545 -88.01009 18885 ft 384 kts 314°
2026-04-14 14:04 42.90562 -88.03399 18901 ft 384 kts 314°
2026-04-14 14:04 42.92583 -88.05776 18887 ft 384 kts 314°
2026-04-14 14:05 42.94598 -88.08170 18877 ft 384 kts 314°
2026-04-14 14:05 42.96615 -88.10556 18878 ft 384 kts 313°
2026-04-14 14:05 42.98629 -88.12950 18887 ft 384 kts 314°
2026-04-14 14:05 43.00643 -88.15340 18903 ft 384 kts 313°
2026-04-14 14:06 43.02661 -88.17738 18902 ft 384 kts 313°
2026-04-14 14:06 43.04675 -88.20132 18895 ft 384 kts 314°
2026-04-14 14:06 43.06690 -88.22531 18890 ft 384 kts 313°
2026-04-14 14:06 43.08703 -88.24929 18895 ft 384 kts 314°
2026-04-14 14:07 43.10936 -88.26973 18890 ft 396 kts 332°
2026-04-14 14:07 43.13652 -88.27887 18917 ft 406 kts 344°
2026-04-14 14:07 43.16482 -88.28317 18911 ft 413 kts 351°
2026-04-14 14:07 43.19337 -88.28236 18904 ft 418 kts 357°
2026-04-14 14:08 43.22244 -88.27944 18935 ft 420 kts 358°
2026-04-14 14:08 43.25154 -88.27635 18921 ft 419 kts 357°
2026-04-14 14:08 43.28058 -88.27394 18890 ft 418 kts 356°
2026-04-14 14:08 43.30967 -88.27211 18877 ft 419 kts 355°
2026-04-14 14:09 43.33886 -88.27049 18880 ft 421 kts 355°
2026-04-14 14:09 43.36819 -88.26867 18876 ft 422 kts 356°
2026-04-14 14:09 43.39755 -88.26687 18871 ft 423 kts 356°
2026-04-14 14:09 43.42701 -88.26503 18871 ft 424 kts 355°
2026-04-14 14:10 43.45655 -88.26323 18869 ft 425 kts 355°
2026-04-14 14:10 43.48608 -88.26141 18872 ft 426 kts 356°
2026-04-14 14:10 43.51571 -88.25962 18868 ft 426 kts 355°
2026-04-14 14:10 43.54542 -88.25776 18719 ft 428 kts 356°
2026-04-14 14:11 43.57501 -88.25594 18306 ft 425 kts 355°
2026-04-14 14:11 43.60451 -88.25409 17769 ft 425 kts 356°
2026-04-14 14:11 43.63391 -88.25224 17221 ft 418 kts 356°
2026-04-14 14:11 43.66251 -88.25049 16659 ft 406 kts 356°
2026-04-14 14:12 43.69034 -88.24874 16102 ft 395 kts 356°
2026-04-14 14:12 43.71752 -88.24706 15552 ft 387 kts 356°
2026-04-14 14:12 43.74411 -88.24538 15014 ft 379 kts 357°
2026-04-14 14:12 43.77023 -88.24377 14487 ft 372 kts 357°
2026-04-14 14:13 43.79584 -88.24216 13960 ft 365 kts 358°
2026-04-14 14:13 43.82081 -88.24058 13466 ft 352 kts 358°
2026-04-14 14:13 43.84484 -88.23912 12984 ft 339 kts 358°
2026-04-14 14:13 43.86805 -88.23763 12516 ft 329 kts 358°
2026-04-14 14:14 43.89063 -88.23610 12042 ft 321 kts 358°
2026-04-14 14:14 43.91262 -88.23484 11584 ft 312 kts 357°
2026-04-14 14:14 43.93405 -88.23355 11133 ft 304 kts 358°
2026-04-14 14:14 43.95483 -88.23224 10710 ft 295 kts 357°
2026-04-14 14:15 43.97509 -88.23101 10296 ft 289 kts 358°
2026-04-14 14:15 43.99529 -88.22979 9889 ft 292 kts 358°
2026-04-14 14:15 44.01560 -88.22854 9484 ft 293 kts 358°
2026-04-14 14:15 44.03573 -88.22731 9048 ft 294 kts 358°
2026-04-14 14:16 44.05615 -88.22601 8632 ft 294 kts 358°
2026-04-14 14:16 44.07650 -88.22563 8197 ft 288 kts 348°
2026-04-14 14:16 44.09463 -88.23487 7785 ft 274 kts 328°
2026-04-14 14:17 44.12528 -88.26365 6961 ft 260 kts 307°
2026-04-14 14:17 44.13691 -88.28276 6560 ft 258 kts 307°
2026-04-14 14:17 44.14838 -88.30186 6158 ft 257 kts 307°
2026-04-14 14:17 44.15970 -88.32100 5743 ft 255 kts 306°
2026-04-14 14:18 44.17083 -88.34011 5326 ft 253 kts 306°
2026-04-14 14:18 44.18180 -88.35916 4915 ft 251 kts 306°
2026-04-14 14:18 44.19264 -88.37817 4503 ft 250 kts 306°
2026-04-14 14:18 44.20337 -88.39712 4077 ft 249 kts 306°
2026-04-14 14:19 44.21400 -88.41605 3664 ft 247 kts 306°
2026-04-14 14:19 44.22442 -88.43484 3381 ft 243 kts 306°
2026-04-14 14:19 44.23462 -88.45338 3088 ft 239 kts 307°
2026-04-14 14:19 44.24455 -88.47178 2794 ft 236 kts 306°
2026-04-14 14:20 44.25438 -88.49000 2504 ft 235 kts 306°
2026-04-14 14:20 44.26435 -88.50820 2393 ft 234 kts 316°
2026-04-14 14:20 44.27748 -88.52033 2351 ft 221 kts 338°
2026-04-14 14:20 44.29210 -88.52061 2330 ft 210 kts 22°
2026-04-14 14:21 44.30379 -88.50963 2321 ft 197 kts 38°
2026-04-14 14:21 44.31406 -88.49679 2326 ft 200 kts 41°
2026-04-14 14:21 44.32405 -88.48306 2313 ft 201 kts 44°
2026-04-14 14:21 44.33377 -88.46912 2322 ft 200 kts 45°
2026-04-14 14:22 44.34326 -88.45498 2342 ft 199 kts 45°
2026-04-14 14:22 44.34920 -88.44523 2330 ft 200 kts 58°
2026-04-14 14:22 44.35319 -88.42677 2349 ft 200 kts 81°
2026-04-14 14:22 44.35579 -88.40767 2294 ft 202 kts 66°
2026-04-14 14:23 44.36273 -88.39014 2150 ft 208 kts 53°
2026-04-14 14:23 44.37404 -88.36964 2244 ft 190 kts 49°
2026-04-14 14:23 44.38238 -88.35593 2142 ft 182 kts 46°
2026-04-14 14:23 44.39109 -88.34285 2018 ft 188 kts 45°
2026-04-14 14:24 44.39704 -88.33343 1949 ft 193 kts 48°
2026-04-14 14:24 44.40540 -88.31886 2002 ft 191 kts 52°
2026-04-14 14:24 44.41275 -88.30334 1976 ft 193 kts 57°
2026-04-14 14:24 44.42021 -88.28732 1880 ft 200 kts 55°
2026-04-14 14:25 44.42782 -88.27183 1921 ft 185 kts 54°
2026-04-14 14:25 44.43515 -88.25743 1786 ft 180 kts 55°
2026-04-14 14:25 44.44131 -88.24244 1591 ft 176 kts 62°
2026-04-14 14:25 44.44661 -88.22797 1546 ft 157 kts 64°
2026-04-14 14:26 44.45144 -88.21433 1125 ft 162 kts 63°
2026-04-14 14:26 44.45591 -88.20154 1406 ft 121 kts 65°
2026-04-14 14:26 44.45881 -88.19130 1450 ft 119 kts 68°
2026-04-14 14:26 44.46252 -88.18030 1315 ft 129 kts 56°
2026-04-14 14:27 44.46748 -88.16980 1373 ft 125 kts 56°
2026-04-14 14:27 44.47250 -88.15986 1124 ft 121 kts 53°
2026-04-14 14:27 44.47689 -88.15101 904 ft 102 kts 55°
2026-04-14 14:27 44.48058 -88.14306 699 ft 99 kts 57°
2026-04-14 14:28 44.48374 -88.13615 688 ft 67 kts 53°
2026-04-14 14:28 44.48608 -88.13184 693 ft 47 kts 52°